Regional Weather Roundup
Issued by NWS

Home | Current Version | Previous Version | Text Only | Print | Product List | Glossary Off
Versions: 1 2 3 4 5 6 7 8 9 10 11 12 13 14 15 16 17 18 19 20 21 22 23 24 25 26 27 28 29 30 31 32 33 34 35 36 37 38 39 40 41 42 43 44 45 46 47 48 49 50

000
ASUS45 KCYS 012010
RWRWY

WYOMING REGIONAL WEATHER ROUNDUP
NATIONAL WEATHER SERVICE CHEYENNE WY
200 PM MDT WED APR 01 2015

NOTE:  "FAIR" INDICATES FEW OR NO CLOUDS BELOW 12,000 FEET
WITH NO SIGNIFICANT WEATHER AND/OR OBSTRUCTIONS TO VISIBILITY.

WYZ001-012100-
YELLOWSTONE NATIONAL PARK

CITY           SKY/WX    TMP DP  RH WIND       PRES   REMARKS
LK YELLOWSTONE   N/A     28   8  43 W8        29.94F WCI  20
W YELLOWSTONE  NOT AVBL

$$
WYZ002>013-054>058-071-098>099-012100-
NORTHERN WYOMING

CITY           SKY/WX    TMP DP  RH WIND       PRES   REMARKS
JACKSON        PTSUNNY   36  10  35 SW13G21   29.98F WCI  27
CODY           FAIR      46  10  23 SW18G30   29.88F
GREYBULL       CLOUDY    51  13  21 N7        29.84F
WORLAND        CLOUDY    49  15  25 N10G33    29.86F
SHERIDAN       PTSUNNY   49  15  25 NW24      29.84F
BUFFALO        CLOUDY    44  11  26 NW20G33   29.83R
GILLETTE       CLOUDY    44  25  47 N9        29.85S
HULETT         CLOUDY    43  21  42 NW8G18    29.84S
NEWCASTLE      FAIR      41  28  60 N28G40    29.85R

$$
WYZ014>020-022>026-101>103-012100-
CENTRAL WYOMING

CITY           SKY/WX    TMP DP  RH WIND       PRES   REMARKS
BIG PINEY      FAIR      42   3  19 NW15G24   29.99S
PINEDALE       CLOUDY    36  10  35 NW13G21   29.98S WCI  27
DUBOIS         MOCLDY    34   9  35 N20G31    29.90F WCI  22
LANDER         NOT AVBL
RIVERTON       FAIR      51   8  17 NW23G41   29.86S
CASPER         CLOUDY    44  30  57 N12       29.85R
DOUGLAS        FAIR      51  29  42 N23G31    29.81S

$$
WYZ021-027>030-104>119-012100-
SOUTHERN WYOMING

CITY           SKY/WX    TMP DP  RH WIND       PRES   REMARKS
EVANSTON       FAIR      42   8  24 W15G25    30.03S
KEMMERER       FAIR      39   5  24 W17G28    30.01F WCI  30
FORT BRIDGER   FAIR      45   2  17 W21G26    30.04S
ROCK SPRINGS   FAIR      45   3  17 W31G38    29.96F
DIXON          MOCLDY    52  14  22 W12G21    29.97F
RAWLINS        FAIR      50  -3  11 W24G40    29.90S
SARATOGA       FAIR      48   9  20 W23G33    29.93S
LARAMIE        FAIR      52  23  32 W22G33    29.85S
CHEYENNE       FAIR      60  27  28 NW17G24   29.78F
TORRINGTON     FAIR      65 -10   5 W22G31    29.72S
PINE BLUFFS    FAIR      66  28  24 W17G30    29.74F

$$


USA.gov is the U.S. government's official web portal to all federal, state and local government web resources and services.